| time (UTC) | temp C | wind direction | speed KPH | gust KPH | rain 1hr cm | rain 24hr cm | rain mn cm | humidity % | barometer mb |
| 20260507185701 | 13 | 39 | 6.4 | 0.0 | 0.00 | 0.00 | 0.00 | 63 | 1013.0 |
| 20260507175702 | 15 | 39 | 6.4 | 0.0 | 0.00 | 0.00 | 0.00 | 63 | 1012.0 |
| 20260507165703 | 16 | 39 | 6.4 | 0.0 | 0.00 | 0.00 | 0.00 | 63 | 1012.0 |
| 20260507155703 | 17 | 39 | 6.4 | 0.0 | 0.00 | 0.00 | 0.00 | 63 | 1012.0 |
| 20260507145701 | 18 | 39 | 6.4 | 0.0 | 0.00 | 0.00 | 0.00 | 63 | 1011.0 |
| 20260507135702 | 16 | 320 | 8.0 | 0.0 | 0.00 | 0.00 | 0.00 | 62 | 1011.0 |
| 20260507125702 | 17 | 320 | 8.0 | 0.0 | 0.00 | 0.00 | 0.00 | 62 | 1011.0 |
| 20260507115702 | 18 | 320 | 8.0 | 0.0 | 0.00 | 0.00 | 0.00 | 62 | 1011.0 |
| 20260507105702 | 18 | 312 | 9.7 | 0.0 | 0.00 | 0.00 | 0.00 | 39 | 1011.0 |
| 20260507095701 | 20 | 312 | 9.7 | 0.0 | 0.00 | 0.00 | 0.00 | 39 | 1011.0 |
| 20260507085702 | 21 | 312 | 9.7 | 0.0 | 0.00 | 0.00 | 0.00 | 39 | 1011.0 |
| 20260507075702 | 22 | 312 | 9.7 | 0.0 | 0.00 | 0.00 | 0.00 | 39 | 1011.0 |
| 20260507065702 | 16 | 298 | 6.4 | 0.0 | 0.00 | 0.00 | 0.00 | 51 | 1011.0 |
| 20260507055701 | 17 | 298 | 6.4 | 0.0 | 0.00 | 0.00 | 0.00 | 51 | 1011.0 |
| 20260507045702 | 18 | 298 | 6.4 | 0.0 | 0.00 | 0.00 | 0.00 | 51 | 1011.0 |
| 20260507035701 | 13 | 286 | 4.8 | 0.0 | 0.00 | 0.00 | 0.00 | 61 | 1011.0 |
| 20260507025702 | 15 | 286 | 4.8 | 0.0 | 0.00 | 0.00 | 0.00 | 61 | 1011.0 |
| 20260507015702 | 9 | 202 | 4.8 | 0.0 | 0.00 | 0.00 | 0.00 | 78 | 1011.0 |
| 20260507005702 | 10 | 202 | 4.8 | 0.0 | 0.00 | 0.00 | 0.00 | 78 | 1011.0 |
| 20260506235702 | 6 | 161 | 12.9 | 0.0 | 0.00 | 0.00 | 0.00 | 52 | 1011.0 |
| 20260506225702 | 7 | 161 | 12.9 | 0.0 | 0.00 | 0.00 | 0.00 | 52 | 1011.0 |
| 20260506215702 | 8 | 161 | 12.9 | 0.0 | 0.00 | 0.00 | 0.00 | 52 | 1011.0 |
| 20260506205702 | 10 | 161 | 12.9 | 0.0 | 0.00 | 0.00 | 0.00 | 52 | 1011.0 |
| 20260506195702 | 11 | 161 | 12.9 | 0.0 | 0.00 | 0.00 | 0.00 | 52 | 1011.0 |